User: anonymous   Login
Location: Allos
(44.2333°N, 6.6333°E)
Time: 03:17:23
(UTC+00:00)
Language:

RESURS O1 DEB - Orbit

View from above orbital plane
View from above orbital plane
View from above satellite
View from above satellite

Ground track
Ground track

The orbit data is extracted from the following two-line orbital elements,

1 47207U 94074CT  21165.11835362  .00003619  00000-0  46466-3 0  9996
2 47207  97.9103 215.2154 0004319 115.8374 244.3284 14.81816366 31169
Epoch (UTC): 14 June 2021 02:50:25
Eccentricity: 0.0004319
inclination: 97.9103°
perigee height: 620 km
apogee height: 626 km
right ascension of ascending node: 215.2154°
argument of perigee: 115.8374°
revolutions per day: 14.81816366
mean anomaly at epoch: 244.3284°
orbit number at epoch: 3116

The dashed part of the orbit path shows where the satellite is in the earth's shadow,  

DLR